This demonstration page uses our WeatherBlox Daily Observations layout. Learn more.

Left ArrowRight Arrow

38.88101, -77.10428

Hourly Observations for March 7, 2021

Temp ( °F °C ) Dew Point ( °F °C ) Humidity (%) Winds ( mph kmh ) Pressure ( in mb ) Visibility ( mi km ) Precip ( " mm )
12:52 am 00:52 Clear 36 2.2 19 -7.2 50 50 Calm 30.29 1026 10 16.0934 0 0
1:52 am 01:52 Clear 35 1.7 21 -6.1 57 57 E 3 6 30.3 1026 10 16.0934 0 0
2:52 am 02:52 Mostly Clear 32 0 19 -7.2 59 59 NNW 7 11 30.3 1026 10 16.0934 0 0
3:52 am 03:52 Mostly Clear 32 0 15 -9.4 50 50 NW 10 17 30.32 1027 10 16.0934 0 0
4:52 am 04:52 Mostly Clear 30 -1.1 14 -10 51 51 NW 6 9 30.34 1027 10 16.0934 0 0
5:52 am 05:52 Clear 30 -1.1 14 -10 51 51 WNW 5 7 30.35 1028 10 16.0934 0 0
6:52 am 06:52 Mostly Sunny 28 -2.2 15 -9.4 58 58 NNW 7 11 30.36 1028 10 16.0934 0 0
7:52 am 07:52 Sunny 33 0.6 16 -8.9 49 49 NNW 8 13 30.38 1029 10 16.0934 0 0
8:52 am 08:52 Sunny 36 2.2 16 -8.9 44 44 NW 7 11 30.39 1029 10 16.0934 0 0
9:52 am 09:52 Sunny 38 3.3 11 -11.7 33 33 NW 14 22 30.4 1029 10 16.0934 0 0
10:52 am 10:52 Sunny 41 5 10 -12.2 28 28 NW 9 15 30.39 1029 10 16.0934 0 0
11:52 am 11:52 Sunny 44 6.7 11 -11.7 26 26 WNW 8 13 30.38 1029 10 16.0934 0 0
12:52 pm 12:52 Sunny 45 7.2 11 -11.7 25 25 NNW 13 20 30.37 1028 10 16.0934 0 0
1:52 pm 13:52 Sunny 46 7.8 12 -11.1 25 25 NW 18 30 30.35 1028 10 16.0934 0 0
2:52 pm 14:52 Sunny 47 8.3 13 -10.6 25 25 NNW 12 19 30.34 1028 10 16.0934 0 0
3:52 pm 15:52 Sunny 47 8.3 13 -10.6 25 25 NNW 14 22 30.35 1028 10 16.0934 0 0
4:52 pm 16:52 Sunny 46 7.8 13 -10.6 26 26 NNW 13 20 30.35 1028 10 16.0934 0 0
5:52 pm 17:52 Sunny 44 6.7 12 -11.1 27 27 NNW 8 13 30.35 1028 10 16.0934 0 0
6:52 pm 18:52 Clear 41 5 13 -10.6 32 32 N 6 9 30.36 1028 10 16.0934 0 0
7:52 pm 19:52 Clear 41 5 14 -10 33 33 NNW 7 11 30.38 1029 10 16.0934 0 0
8:52 pm 20:52 Clear 37 2.8 17 -8.3 44 44 N 9 15 30.4 1030 10 16.0934 0 0
9:52 pm 21:52 Clear 39 3.9 19 -7.2 45 45 ENE 5 7 30.42 1030 10 16.0934 0 0
10:52 pm 22:52 Clear 39 3.9 19 -7.2 45 45 Calm 30.43 1031 10 16.0934 0 0
11:52 pm 23:52 Clear 36 2.2 19 -7.2 50 50 Calm 30.44 1031 10 16.0934 0 0

Powered by AerisWeather